H1 CPF 2 NER 2021 10 16 9 289 01 glonass141 H2 1908801 9141 44850 2021 10 16 0 0 0 2021 10 19 23 45 0 900 1 1 0 0 0 1 H9 10 0 59503 0.00000 0 10390026.082 -21713179.578 -8403431.963 10 0 59503 900.00000 0 9948395.918 -20566347.892 -11313313.918 10 0 59503 1800.00000 0 9530719.562 -19050823.059 -14003060.268 10 0 59503 2700.00000 0 9189831.950 -17196183.212 -16420296.906 10 0 59503 3600.00000 0 8972752.120 -15043740.665 -18517952.376 10 0 59503 4500.00000 0 8918526.342 -12645005.502 -20255180.977 10 0 59503 5400.00000 0 9056421.866 -10059732.159 -21598162.996 10 0 59503 6300.00000 0 9404548.537 -7353630.403 -22520766.269 10 0 59503 7200.00000 0 9968967.238 -4595836.345 -23005056.021 10 0 59503 8100.00000 0 10743323.334 -1856248.957 -23041643.241 10 0 59503 9000.00000 0 11709021.001 797156.914 -22629865.010 10 0 59503 9900.00000 0 12835931.295 3300929.169 -21777793.548 10 0 59503 10800.00000 0 14083604.241 5598540.881 -20502074.161 10 0 59503 11700.00000 0 15402933.891 7642497.054 -18827595.516 10 0 59503 12600.00000 0 16738206.120 9396058.745 -16786998.984 10 0 59503 13500.00000 0 18029442.757 10834513.883 -14420036.908 10 0 59503 14400.00000 0 19214943.180 11945943.186 -11772792.560 10 0 59503 15300.00000 0 20233916.070 12731450.858 -8896777.371 10 0 59503 16200.00000 0 21029090.324 13204852.311 -5847923.387 10 0 59503 17100.00000 0 21549195.011 13391834.019 -2685490.949 10 0 59503 18000.00000 0 21751203.833 13328622.754 529086.602 10 0 59503 18900.00000 0 21602249.649 13060221.997 3733398.329 10 0 59503 19800.00000 0 21081128.578 12638291.457 6865267.654 10 0 59503 20700.00000 0 20179330.613 12118760.253 9863956.988 10 0 59503 21600.00000 0 18901553.655 11559275.348 12671341.700 10 0 59503 22500.00000 0 17265679.545 11016593.276 15233030.866 10 0 59503 23400.00000 0 15302213.153 10544025.213 17499413.471 10 0 59503 24300.00000 0 13053207.868 10189042.817 19426610.559 10 0 59503 25200.00000 0 10570721.939 9991145.185 20977315.806 10 0 59503 26100.00000 0 7914869.381 9980076.106 22121509.211 10 0 59503 27000.00000 0 5151545.644 10174465.996 22837031.152 10 0 59503 27900.00000 0 2349921.234 10580955.232 23110006.589 10 0 59503 28800.00000 0 -420193.958 11193835.569 22935111.889 10 0 59503 29700.00000 0 -3091007.915 11995224.960 22315679.450 10 0 59503 30600.00000 0 -5599316.722 12955769.098 21263638.097 10 0 59503 31500.00000 0 -7888882.555 14035841.231 19799289.983 10 0 59503 32400.00000 0 -9912522.081 15187191.134 17950927.551 10 0 59503 33300.00000 0 -11633819.569 16354975.427 15754296.899 10 0 59503 34200.00000 0 -13028394.099 17480085.210 13251916.770 10 0 59503 35100.00000 0 -14084668.571 18501674.348 10492265.098 10 0 59503 36000.00000 0 -14804108.655 19359782.802 7528847.709 10 0 59503 36900.00000 0 -15200921.693 19997944.842 4419166.415 10 0 59503 37800.00000 0 -15301228.229 20365672.100 1223605.878 10 0 59503 38700.00000 0 -15141741.039 20420706.076 -1995739.350 10 0 59503 39600.00000 0 -14768007.382 20130943.972 -5176274.602 10 0 59503 40500.00000 0 -14232288.965 19475955.201 -8256127.675 10 0 59503 41400.00000 0 -13591169.627 18448022.962 -11175359.733 10 0 59503 42300.00000 0 -12902992.574 17052665.302 -13877139.950 10 0 59503 43200.00000 0 -12225236.342 15308612.133 -16308860.166 10 0 59503 44100.00000 0 -11611941.421 13247237.684 -18423166.967 10 0 59503 45000.00000 0 -11111297.275 10911471.115 -20178890.331 10 0 59503 45900.00000 0 -10763492.604 8354230.068 -21541850.265 10 0 59503 46800.00000 0 -10598920.430 5636442.069 -22485525.439 10 0 59503 47700.00000 0 -10636814.323 2824736.198 -22991570.697 10 0 59503 48600.00000 0 -10884373.670 -11098.883 -23050173.467 10 0 59503 49500.00000 0 -11336415.042 -2800784.740 -22660242.376 10 0 59503 50400.00000 0 -11975564.304 -5476239.648 -21829424.657 10 0 59503 51300.00000 0 -12772981.188 -7974170.201 -20573952.366 10 0 59503 52200.00000 0 -13689585.497 -10238460.591 -18918320.696 10 0 59503 53100.00000 0 -14677732.868 -12222260.615 -16894804.971 10 0 59503 54000.00000 0 -15683269.014 -13889686.391 -14542826.034 10 0 59503 54900.00000 0 -16647875.429 -15217064.001 -11908176.642 10 0 59503 55800.00000 0 -17511607.164 -16193665.552 -9042124.339 10 0 59503 56700.00000 0 -18215515.255 -16821908.566 -6000408.635 10 0 59503 57600.00000 0 -18704242.865 -17117012.183 -2842152.391 10 0 59503 58500.00000 0 -18928485.365 -17106126.468 371290.872 10 0 59503 59400.00000 0 -18847210.482 -16826973.268 3577530.898 10 0 59503 60300.00000 0 -18429544.856 -16326057.459 6714352.345 10 0 59503 61200.00000 0 -17656247.611 -15656525.278 9720920.279 10 0 59503 62100.00000 0 -16520708.962 -14875761.005 12538956.123 10 0 59503 63000.00000 0 -15029431.934 -14042823.878 15113861.481 10 0 59503 63900.00000 0 -13201976.949 -13215833.391 17395768.424 10 0 59503 64800.00000 0 -11070371.352 -12449412.908 19340496.663 10 0 59503 65700.00000 0 -8678008.078 -11792298.623 20910399.971 10 0 59503 66600.00000 0 -6078078.744 -11285213.710 22075086.435 10 0 59503 67500.00000 0 -3331605.348 -10959096.154 22811999.667 10 0 59503 68400.00000 0 -505151.161 -10833753.960 23106850.619 10 0 59503 69300.00000 0 2331695.587 -10917003.591 22953892.317 10 0 59503 70200.00000 0 5108962.453 -11204327.557 22356032.590 10 0 59503 71100.00000 0 7758950.148 -11679065.589 21324782.574 10 0 59503 72000.00000 0 10218797.765 -12313131.860 19880041.616 10 0 59503 72900.00000 0 12432850.887 -13068228.930 18049721.957 10 0 59503 73800.00000 0 14354735.349 -13897508.433 15869219.423 10 0 59503 74700.00000 0 15949051.128 -14747609.784 13380739.199 10 0 59503 75600.00000 0 17192616.363 -15560992.149 10632488.482 10 0 59503 76500.00000 0 18075209.799 -16278462.267 7677750.519 10 0 59503 77400.00000 0 18599780.538 -16841791.981 4573857.124 10 0 59503 78300.00000 0 18782116.264 -17196315.067 1381078.996 10 0 59503 79200.00000 0 18649983.712 -17293393.228 -1838544.879 10 0 59503 80100.00000 0 18241777.487 -17092646.175 -5022415.753 10 0 59503 81000.00000 0 17604734.246 -16563850.278 -8108597.660 10 0 59503 81900.00000 0 16792787.880 -15688423.990 -11037029.450 10 0 59503 82800.00000 0 15864156.699 -14460435.610 -13750701.785 10 0 59503 83700.00000 0 14878765.208 -12887089.123 -16196775.261 10 0 59503 84600.00000 0 13895610.137 -10988665.943 -18327617.036 10 0 59503 85500.00000 0 12970182.792 -8797923.595 -20101734.977 10 0 59504 0.00000 0 12152057.371 -6358975.557 -21484590.543 10 0 59504 900.00000 0 11482747.228 -3725696.877 -22449274.958 10 0 59504 1800.00000 0 10993920.993 -959724.980 -22977033.587 10 0 59504 2700.00000 0 10706052.511 1871865.671 -23057630.931 10 0 59504 3600.00000 0 10627562.533 4699115.156 -22689547.391 10 0 59504 4500.00000 0 10754487.624 7451851.008 -21880005.048 10 0 59504 5400.00000 0 11070689.812 10062371.163 -20644822.190 10 0 59504 6300.00000 0 11548597.546 12468025.579 -19008099.673 10 0 59504 7200.00000 0 12150446.013 14613589.361 -17001745.588 10 0 59504 8100.00000 0 12829963.753 16453329.213 -14664847.755 10 0 59504 9000.00000 0 13534433.672 17952677.946 -12042906.570 10 0 59504 9900.00000 0 14207040.744 19089448.216 -9186943.519 10 0 59504 10800.00000 0 14789406.648 19854536.160 -6152503.080 10 0 59504 11700.00000 0 15224203.718 20252087.093 -2998567.860 10 0 59504 12600.00000 0 15457737.405 20299117.957 213591.417 10 0 59504 13500.00000 0 15442387.874 20024614.158 3421608.305 10 0 59504 14400.00000 0 15138807.477 19468140.367 6563231.864 10 0 59504 15300.00000 0 14517781.328 18678025.160 9577532.931 10 0 59504 16200.00000 0 13561672.541 17709197.024 12406081.972 10 0 59504 17100.00000 0 12265391.249 16620763.546 14994075.923 10 0 59504 18000.00000 0 10636846.585 15473435.981 17291392.527 10 0 59504 18900.00000 0 8696862.410 14326907.436 19253552.490 10 0 59504 19800.00000 0 6478559.772 13237294.374 20842571.731 10 0 59504 20700.00000 0 4026231.219 12254748.136 22027688.167 10 0 59504 21600.00000 0 1393752.830 11421335.786 22785950.036 10 0 59504 22500.00000 0 -1357401.273 10769278.096 23102655.288 10 0 59504 23400.00000 0 -4160460.860 10319617.687 22971634.186 10 0 59504 24300.00000 0 -6945884.122 10081372.362 22395370.087 10 0 59504 25200.00000 0 -9644001.779 10051208.732 21384956.034 10 0 59504 26100.00000 0 -12187672.643 10213649.758 19959887.633 10 0 59504 27000.00000 0 -14514841.959 10541807.724 18147695.488 10 0 59504 27900.00000 0 -16570897.456 10998612.497 15983423.261 10 0 59504 28800.00000 0 -18310725.974 11538484.126 13508960.294 10 0 59504 29700.00000 0 -19700385.538 12109380.242 10772240.477 10 0 59504 30600.00000 0 -20718323.354 12655132.671 7826321.709 10 0 59504 31500.00000 0 -21356088.642 13117975.185 4728362.943 10 0 59504 32400.00000 0 -21618510.263 13441155.752 1538518.022 10 0 59504 33300.00000 0 -21523331.327 13571522.609 -1681232.501 10 0 59504 34200.00000 0 -21100315.837 13461974.053 -4868288.619 10 0 59504 35100.00000 0 -20389864.818 13073667.209 -7960653.344 10 0 59504 36000.00000 0 -19441200.249 12377890.874 -10898145.862 10 0 59504 36900.00000 0 -18310193.642 11357521.605 -13623580.827 10 0 59504 37800.00000 0 -17056931.282 10007999.750 -16083889.904 10 0 59504 38700.00000 0 -15743119.472 8337782.433 -18231162.896 10 0 59504 39600.00000 0 -14429439.862 6368252.820 -20023587.344 10 0 59504 40500.00000 0 -13172967.053 4133087.951 -21426267.843 10 0 59504 41400.00000 0 -12024757.799 1677110.440 -22411908.796 10 0 59504 42300.00000 0 -11027713.733 -945328.733 -22961347.161 10 0 59504 43200.00000 0 -10214807.684 -3672369.475 -23063924.966 10 0 59504 44100.00000 0 -9607748.054 -6436980.018 -22717694.500 10 0 59504 45000.00000 0 -9216137.033 -9169515.317 -21929452.494 10 0 59504 45900.00000 0 -9037157.385 -11800390.038 -20714602.934 10 0 59504 46800.00000 0 -9055800.067 -14262755.013 -19096851.518 10 0 59504 47700.00000 0 -9245622.126 -16495065.861 -17107737.992 10 0 59504 48600.00000 0 -9570001.791 -18443437.180 -14786015.804 10 0 59504 49500.00000 0 -9983836.737 -20063684.720 -12176891.430 10 0 59504 50400.00000 0 -10435612.796 -21322971.039 -9331138.560 10 0 59504 51300.00000 0 -10869754.772 -22200986.943 -6304104.783 10 0 59504 52200.00000 0 -11229159.209 -22690620.540 -3154630.461 10 0 59504 53100.00000 0 -11457801.379 -22798087.246 56098.594 10 0 59504 54000.00000 0 -11503305.786 -22542516.879 3265741.974 10 0 59504 54900.00000 0 -11319371.217 -21955016.643 6412015.527 10 0 59504 55800.00000 0 -10867947.715 -21077250.804 9433898.379 10 0 59504 56700.00000 0 -10121073.501 -19959597.920 12272812.690 10 0 59504 57600.00000 0 -9062294.367 -18658963.916 14873753.445 10 0 59504 58500.00000 0 -7687605.690 -17236343.401 17186346.776 10 0 59504 59400.00000 0 -6005877.272 -15754231.649 19165817.017 10 0 59504 60300.00000 0 -4038742.718 -14273995.486 20773844.690 10 0 59504 61200.00000 0 -1819957.334 -12853312.631 21979299.750 10 0 59504 62100.00000 0 605749.648 -11543785.758 22758836.960 10 0 59504 63000.00000 0 3184282.013 -10388830.009 23097342.796 10 0 59504 63900.00000 0 5854177.212 -9421921.248 22988225.908 10 0 59504 64800.00000 0 8548919.337 -8665277.248 22433545.939 10 0 59504 65700.00000 0 11199470.123 -8129026.147 21443978.198 10 0 59504 66600.00000 0 13736914.549 -7810896.477 20038614.528 10 0 59504 67500.00000 0 16095112.769 -7696441.506 18244603.478 10 0 59504 68400.00000 0 18213249.484 -7759788.569 16096635.727 10 0 59504 69300.00000 0 20038175.588 -7964882.302 13636283.536 10 0 59504 70200.00000 0 21526445.141 -8267169.945 10911205.820 10 0 59504 71100.00000 0 22645962.886 -8615658.263 7974233.018 10 0 59504 72000.00000 0 23377173.237 -8955255.724 4882348.684 10 0 59504 72900.00000 0 23713740.624 -9229301.155 1695586.883 10 0 59504 73800.00000 0 23662692.112 -9382171.794 -1524133.481 10 0 59504 74700.00000 0 23244015.750 -9361859.846 -4714214.551 10 0 59504 75600.00000 0 22489731.117 -9122407.512 -7812601.785 10 0 59504 76500.00000 0 21442470.870 -8626096.121 -10758998.123 10 0 59504 77400.00000 0 20153633.026 -7845295.189 -13496045.459 10 0 59504 78300.00000 0 18681181.967 -6763891.462 -15970449.555 10 0 59504 79200.00000 0 17087191.194 -5378235.784 -18134025.594 10 0 59504 80100.00000 0 15435231.816 -3697566.139 -19944643.222 10 0 59504 81000.00000 0 13787717.280 -1743887.422 -21367052.157 10 0 59504 81900.00000 0 12203316.475 448688.442 -22373571.975 10 0 59504 82800.00000 0 10734544.367 2835115.440 -22944632.467 10 0 59504 83700.00000 0 9425631.482 5361051.278 -23069154.174 10 0 59504 84600.00000 0 8310761.528 7964892.238 -22744761.876 10 0 59504 85500.00000 0 7412750.719 10580120.458 -21977827.139 10 0 59505 0.00000 0 6742223.503 13137865.794 -20783339.580 10 0 59505 900.00000 0 6297317.958 15569576.958 -19184608.920 10 0 59505 1800.00000 0 6063932.848 17809687.255 -17212805.667 10 0 59505 2700.00000 0 6016503.348 19798168.550 -14906347.528 10 0 59505 3600.00000 0 6119272.266 21482863.764 -12310145.304 10 0 59505 4500.00000 0 6328001.363 22821502.311 -9474722.770 10 0 59505 5400.00000 0 6592049.276 23783314.750 -6455228.143 10 0 59505 6300.00000 0 6856727.101 24350179.953 -3310356.764 10 0 59505 7200.00000 0 7065831.097 24517257.830 -101206.490 10 0 59505 8100.00000 0 7164244.659 24293082.344 3109911.517 10 0 59505 9000.00000 0 7100498.992 23699112.194 6260683.178 10 0 59505 9900.00000 0 6829183.918 22768759.318 9289999.185 10 0 59505 10800.00000 0 6313106.812 21545937.105 12139136.554 10 0 59505 11700.00000 0 5525108.454 20083190.155 14752891.334 10 0 59505 12600.00000 0 4449459.248 18439484.595 17080640.836 10 0 59505 13500.00000 0 3082776.897 16677751.777 19077315.572 10 0 59505 14400.00000 0 1434426.671 14862287.996 20704262.933 10 0 59505 15300.00000 0 -473613.038 13056118.462 21929986.857 10 0 59505 16200.00000 0 -2607415.126 11318434.822 22730750.224 10 0 59505 17100.00000 0 -4922271.587 9702212.070 23091029.235 10 0 59505 18000.00000 0 -7364317.448 8252103.154 23003811.675 10 0 59505 18900.00000 0 -9872544.873 7002697.889 22470733.721 10 0 59505 19800.00000 0 -12381125.516 5977217.697 21502052.668 10 0 59505 20700.00000 0 -14821946.204 5186699.853 20116455.756 10 0 59505 21600.00000 0 -17127254.290 4629704.676 18340708.089 10 0 59505 22500.00000 0 -19232303.991 4292557.592 16209145.454 10 0 59505 23400.00000 0 -21077894.572 4150115.894 13763020.681 10 0 59505 24300.00000 0 -22612695.237 4167028.151 11049714.983 10 0 59505 25200.00000 0 -23795259.946 4299433.514 8121828.371 10 0 59505 26100.00000 0 -24595647.674 4497029.591 5036165.872 10 0 59505 27000.00000 0 -24996579.850 4705421.697 1852638.606 10 0 59505 27900.00000 0 -24994085.693 4868654.054 -1366899.323 10 0 59505 28800.00000 0 -24597607.574 4931815.424 -4559855.288 10 0 59505 29700.00000 0 -23829561.192 4843608.058 -7664120.167 10 0 59505 30600.00000 0 -22724368.478 4558770.042 -10619283.487 10 0 59505 31500.00000 0 -21327003.499 4040247.088 -13367817.056 10 0 59505 32400.00000 0 -19691112.457 3261020.245 -15856203.181 10 0 59505 33300.00000 0 -17876786.932 2205510.537 -18035984.598 10 0 59505 34200.00000 0 -15948084.375 870499.506 -19864714.884 10 0 59505 35100.00000 0 -13970400.438 -734474.782 -21306790.304 10 0 59505 36000.00000 0 -12007803.892 -2587264.453 -22334146.587 10 0 59505 36900.00000 0 -10120446.317 -4653796.317 -22926806.881 10 0 59505 37800.00000 0 -8362155.353 -6889266.458 -23073270.331 10 0 59505 38700.00000 0 -6778312.176 -9239795.682 -22770733.872 10 0 59505 39600.00000 0 -5404101.810 -11644477.060 -22025143.214 10 0 59505 40500.00000 0 -4263208.787 -14037730.330 -20851072.331 10 0 59505 41400.00000 0 -3367011.735 -16351865.051 -19271434.115 10 0 59505 42300.00000 0 -2714309.399 -18519745.482 -17317028.151 10 0 59505 43200.00000 0 -2291588.003 -20477446.033 -15025934.729 10 0 59505 44100.00000 0 -2073817.026 -22166786.462 -12442767.185 10 0 59505 45000.00000 0 -2025738.232 -23537641.016 -9617797.508 10 0 59505 45900.00000 0 -2103591.911 -24549925.343 -6605972.633 10 0 59505 46800.00000 0 -2257206.006 -25175178.520 -3465840.929 10 0 59505 47700.00000 0 -2432358.562 -25397674.660 -258410.341 10 0 59505 48600.00000 0 -2573312.567 -25215018.394 2954039.223 10 0 59505 49500.00000 0 -2625415.217 -24638200.287 6109165.810 10 0 59505 50400.00000 0 -2537651.172 -23691110.881 9145773.804 10 0 59505 51300.00000 0 -2265041.631 -22409534.779 12004997.283 10 0 59505 52200.00000 0 -1770787.746 -20839667.723 14631435.602 10 0 59505 53100.00000 0 -1028067.995 -19036219.433 16974219.505 10 0 59505 54000.00000 0 -21413.756 -17060181.836 18987987.873 10 0 59505 54900.00000 0 1252394.925 -14976355.893 20633757.031 10 0 59505 55800.00000 0 2783951.261 -12850739.863 21879666.783 10 0 59505 56700.00000 0 4551377.862 -10747887.137 22701589.759 10 0 59505 57600.00000 0 6521011.473 -8728342.658 23083593.233 10 0 59505 58500.00000 0 8648588.954 -6846263.484 23018245.164 10 0 59505 59400.00000 0 10880886.575 -5147321.248 22506758.985 10 0 59505 60300.00000 0 13157746.047 -3666972.531 21558974.373 10 0 59505 61200.00000 0 15414404.612 -2429168.158 20193174.036 10 0 59505 62100.00000 0 17584033.907 -1445554.303 18435739.388 10 0 59505 63000.00000 0 19600383.352 -715198.093 16320650.734 10 0 59505 63900.00000 0 21400418.968 -224848.892 13888840.527 10 0 59505 64800.00000 0 22926848.347 50275.896 11187410.972 10 0 59505 65700.00000 0 24130426.572 145213.477 8268729.935 10 0 59505 66600.00000 0 24971946.463 103540.431 5189421.825 10 0 59505 67500.00000 0 25423829.278 -24708.095 2009272.331 10 0 59505 68400.00000 0 25471248.297 -185396.780 -1209932.043 10 0 59505 69300.00000 0 25112737.141 -322825.999 -4405606.939 10 0 59505 70200.00000 0 24360256.207 -382337.214 -7515591.829 10 0 59505 71100.00000 0 23238713.481 -312876.577 -10479366.021 10 0 59505 72000.00000 0 21784959.126 -69406.977 -13239234.350 10 0 59505 72900.00000 0 20046295.617 384935.034 -15741458.607 10 0 59505 73800.00000 0 18078565.782 1077030.285 -17937311.815 10 0 59505 74700.00000 0 15943899.114 2022394.016 -19784033.961 10 0 59505 75600.00000 0 13708211.114 3224278.890 -21245670.085 10 0 59505 76500.00000 0 11438560.790 4673303.236 -22293774.033 10 0 59505 77400.00000 0 9200477.360 6347621.407 -22907963.993 10 0 59505 78300.00000 0 7055368.186 8213630.174 -23076319.069 10 0 59505 79200.00000 0 5058116.323 10227182.327 -22795609.380 10 0 59505 80100.00000 0 3254967.892 12335257.169 -22071355.406 10 0 59505 81000.00000 0 1681796.924 14478018.327 -20917715.821 10 0 59505 81900.00000 0 362819.273 16591172.987 -19357206.248 10 0 59505 82800.00000 0 -690191.818 18608533.838 -17420254.767 10 0 59505 83700.00000 0 -1478157.260 20464676.578 -15144603.138 10 0 59505 84600.00000 0 -2014401.962 22097581.762 -12574565.680 10 0 59505 85500.00000 0 -2323837.054 23451150.359 -9760160.644 10 0 59506 0.00000 0 -2441650.781 24477487.727 -6756131.623 10 0 59506 900.00000 0 -2411565.092 25138861.028 -3620876.816 10 0 59506 1800.00000 0 -2283732.945 25409247.119 -415311.593 10 0 59506 2700.00000 0 -2112366.746 25275408.388 2798318.521 10 0 59506 3600.00000 0 -1953199.006 24737450.670 5957646.941 10 0 59506 4500.00000 0 -1860883.401 23808841.216 9001395.021 10 0 59506 5400.00000 0 -1886446.509 22515886.646 11870557.137 10 0 59506 6300.00000 0 -2074898.095 20896693.422 14509539.079 10 0 59506 7200.00000 0 -2463100.750 18999654.879 16867227.996 10 0 59506 8100.00000 0 -3077988.645 16881528.338 18897973.903 10 0 59506 9000.00000 0 -3935210.319 14605182.457 20562464.592 10 0 59506 9900.00000 0 -5038252.600 12237108.467 21828477.972 10 0 59506 10800.00000 0 -6378082.760 9844798.129 22671498.332 10 0 59506 11700.00000 0 -7933324.494 7494096.481 23075185.548 10 0 59506 12600.00000 0 -9670961.310 5246638.270 23031688.837 10 0 59506 13500.00000 0 -11547539.192 3157473.191 22541799.473 10 0 59506 14400.00000 0 -13510819.880 1272977.244 21614939.558 10 0 59506 15300.00000 0 -15501817.378 -370864.139 20268986.731 10 0 59506 16200.00000 0 -17457134.444 -1749730.913 18529937.585 10 0 59506 17100.00000 0 -19311503.125 -2851748.916 16431415.255 10 0 59506 18000.00000 0 -21000424.500 -3677744.018 14014029.610 10 0 59506 18900.00000 0 -22462798.249 -4240959.704 11324601.195 10 0 59506 19800.00000 0 -23643432.513 -4566250.102 8415262.736 10 0 59506 20700.00000 0 -24495328.864 -4688782.400 5342454.787 10 0 59506 21600.00000 0 -24981646.113 -4652303.350 2165834.236 10 0 59506 22500.00000 0 -25077259.674 -4507043.114 -1052883.437 10 0 59506 23400.00000 0 -24769849.817 -4307345.282 -4251125.540 10 0 59506 24300.00000 0 -24060471.825 -4109123.859 -7366683.472 10 0 59506 25200.00000 0 -22963582.804 -3967255.647 -10338929.529 10 0 59506 26100.00000 0 -21506522.914 -3933019.474 -13110004.613 10 0 59506 27000.00000 0 -19728471.931 -4051691.945 -15625952.817 10 0 59506 27900.00000 0 -17678924.328 -4360402.875 -17837779.954 10 0 59506 28800.00000 0 -15415746.593 -4886342.512 -19702414.549 10 0 59506 29700.00000 0 -13002898.143 -5645397.729 -21183552.067 10 0 59506 30600.00000 0 -10507911.332 -6641276.081 -22252365.590 10 0 59506 31500.00000 0 -7999236.250 -7865155.762 -22888068.885 10 0 59506 32400.00000 0 -5543561.364 -9295877.213 -23078321.009 10 0 59506 33300.00000 0 -3203221.931 -10900669.092 -22819464.712 10 0 59506 34200.00000 0 -1033804.224 -12636378.622 -22116594.245 10 0 59506 35100.00000 0 917954.953 -14451155.062 -20983451.589 10 0 59506 36000.00000 0 2615886.584 -16286515.854 -19442153.394 10 0 59506 36900.00000 0 4035654.884 -18079708.816 -17522754.301 10 0 59506 37800.00000 0 5165518.448 -19766271.265 -15262655.430 10 0 59506 38700.00000 0 6006556.975 -21282678.661 -12705869.857 10 0 59506 39600.00000 0 6572355.888 -22568971.503 -9902159.789 10 0 59506 40500.00000 0 6888164.150 -23571250.203 -6906062.589 10 0 59506 41400.00000 0 6989562.688 -24243933.250 -3775825.032 10 0 59506 42300.00000 0 6920701.323 -24551683.958 -572267.051 10 0 59506 43200.00000 0 6732180.273 -24470925.204 2642402.484 10 0 59506 44100.00000 0 6478667.003 -23990878.961 5805794.598 10 0 59506 45000.00000 0 6216350.070 -23114087.469 8856549.781 10 0 59506 45900.00000 0 6000338.224 -21856394.750 11735524.797 10 0 59506 46800.00000 0 5882114.902 -20246389.681 14386933.862 10 0 59506 47700.00000 0 5907155.612 -18324334.343 16759422.398 10 0 59506 48600.00000 0 6112808.516 -16140622.585 18807053.251 10 0 59506 49500.00000 0 6526527.257 -13753832.981 20490187.180 10 0 59506 50400.00000 0 7164530.150 -11228456.984 21776241.468 10 0 59506 51300.00000 0 8030942.030 -8632396.024 22640313.076 10 0 59506 52200.00000 0 9117454.998 -6034330.575 23065655.219 10 0 59506 53100.00000 0 10403522.762 -3501069.233 23043998.837 10 0 59506 54000.00000 0 11857081.380 -1094986.423 22575713.246 10 0 59506 54900.00000 0 13435767.440 1128346.401 21669802.913 10 0 59506 55800.00000 0 15088584.153 3122239.000 20343740.123 10 0 59506 56700.00000 0 16757947.296 4850584.983 18623136.127 10 0 59506 57600.00000 0 18382026.984 6289118.985 16541256.136 10 0 59506 58500.00000 0 19897288.623 7426176.725 14138386.450 10 0 59506 59400.00000 0 21241127.743 8262926.724 11461064.700 10 0 59506 60300.00000 0 22354488.914 8813064.326 8561186.963 10 0 59506 61200.00000 0 23184359.002 9101980.936 5495008.120 10 0 59506 62100.00000 0 23686029.763 9165443.522 2322054.172 10 0 59506 63000.00000 0 23825033.884 9047840.132 -896032.772 10 0 59506 63900.00000 0 23578671.888 8800065.646 -4096694.237 10 0 59506 64800.00000 0 22937064.311 8477137.558 -7217676.213 10 0 59506 65700.00000 0 21903683.363 8135643.249 -10198246.701 10 0 59506 66600.00000 0 20495340.316 7831127.641 -12980385.333 10 0 59506 67500.00000 0 18741627.865 7615532.865 -15509921.076 10 0 59506 68400.00000 0 16683839.847 7534799.496 -17737594.948 10 0 59506 69300.00000 0 14373412.959 7626732.047 -19620026.258 10 0 59506 70200.00000 0 11869955.334 7919220.197 -21120562.972 10 0 59506 71100.00000 0 9238944.260 8428892.013 -22209999.296 10 0 59506 72000.00000 0 6549189.337 9160256.960 -22867146.285 10 0 59506 72900.00000 0 3870167.018 10105375.663 -23079244.410 10 0 59506 73800.00000 0 1269337.744 11244070.923 -22842210.232 10 0 59506 74700.00000 0 -1190442.525 12544671.507 -22160712.597 10 0 59506 75600.00000 0 -3453308.823 13965257.681 -21048077.205 10 0 59506 76500.00000 0 -5472472.881 15455356.179 -19526021.701 10 0 59506 77400.00000 0 -7211921.879 16958013.319 -17624226.778 10 0 59506 78300.00000 0 -8647660.592 18412158.962 -15379751.950 10 0 59506 79200.00000 0 -9768446.575 19755161.765 -12836307.655 10 0 59506 80100.00000 0 -10575989.327 20925468.053 -10043398.274 10 0 59506 81000.00000 0 -11084607.091 21865213.138 -7055353.107 10 0 59506 81900.00000 0 -11320357.694 22522695.129 -3930264.566 10 0 59506 82800.00000 0 -11319681.953 22854607.094 -728854.800 10 0 59506 83700.00000 0 -11127618.627 22827933.763 2486706.774 10 0 59506 84600.00000 0 -10795667.743 22421433.184 5654011.706 10 0 59506 85500.00000 0 -10379393.721 21626641.320 8711622.617 99